Wolf Point, MT

3:35 PM MDT on March 30, 2017 (GMT -0600)
Clayton

Weather History for KOLF - March, 2012

Change the Weather History Date:

Saturday, March 17, 2012

  Actual Average Record
Temperature  
Mean Temperature 45 °F -  
Max Temperature 64 °F 44 °F 64 °F (2012)
Min Temperature 26 °F 18 °F 6 °F (2013)
Degree Days  
Heating Degree Days 20    
Cooling Degree Days 0    
Moisture  
Dew Point 30 °F    
Average Humidity 60    
Maximum Humidity 96    
Minimum Humidity 26    
Precipitation  
Precipitation 0.00 in 0.01 in 0.19 in (2013)
Month to date precipitation 0.04 0.20  
Year to date precipitation 0.24 0.72  
Sea Level Pressure  
Sea Level Pressure 29.58 in    
Wind  
Wind Speed 7 mph (ENE)    
Max Wind Speed 23 mph    
Max Gust Speed 29 mph    
Visibility 10 miles    
Events      
T = Trace of Precipitation, MM = Missing Value Source: NWS Daily Summary

Daily Weather History Graph

Daily Weather History Graph

Search for Another Location

Airport or City:

Trip Planner

Search our weather history database for the weather conditions in past years. The results will help you decide how hot, cold, wet, or windy it might be!

Date:

Astronomy

Mar. 17, 2012 Rise Set
Actual Time 7:10 AM MDT 7:11 PM MDT
Civil Twilight 6:39 AM MDT 7:42 PM MDT
Nautical Twilight 6:02 AM MDT 8:18 PM MDT
Astronomical Twilight 5:25 AM MDT 8:56 PM MDT
Moon 4:33 AM MDT (3/17) 2:19 PM MDT (3/17)
Length of Visible Light 13h 03m
Length of Day
12h 01m
Waning Crescent, 22% of the Moon is Illuminated
Mar 17
Waning Crescent
Mar 22
New
Mar 30
First Quarter
Apr 6
Full
Apr 13
Last Quarter

Hourly Weather History & Observations

Time (MDT) Temp. Windchill Dew Point Humidity Pressure Visibility Wind Dir Wind Speed Gust Speed Precip Events Conditions
12:53 AM 39.9 °F - 34.0 °F 79% 29.65 in 10.0 mi Calm Calm - N/A   Clear
1:53 AM 37.0 °F 32.4 °F 33.1 °F 86% 29.69 in 10.0 mi SW 5.8 mph - N/A   Clear
2:53 AM 35.1 °F - 32.0 °F 89% 29.69 in 10.0 mi Calm Calm - N/A   Clear
3:53 AM 30.2 °F - 28.4 °F 93% 29.67 in 10.0 mi Calm Calm - N/A   Clear
4:53 AM 28.0 °F - 27.0 °F 96% 29.70 in 10.0 mi Calm Calm - N/A   Clear
5:53 AM 30.0 °F - 28.9 °F 96% 29.71 in 10.0 mi Calm Calm - N/A   Clear
6:53 AM 30.0 °F 26.5 °F 27.0 °F 88% 29.72 in 10.0 mi NNE 3.5 mph - N/A   Clear
7:53 AM 28.0 °F - 26.1 °F 92% 29.73 in 10.0 mi Calm Calm - N/A   Clear
8:53 AM 39.0 °F 36.8 °F 33.1 °F 79% 29.74 in 10.0 mi NE 3.5 mph - N/A   Clear
9:53 AM 44.1 °F 41.5 °F 33.1 °F 65% 29.74 in 10.0 mi ENE 4.6 mph - N/A   Mostly Cloudy
10:53 AM 46.9 °F - 30.9 °F 54% 29.71 in 10.0 mi East 9.2 mph - N/A   Overcast
11:53 AM 52.0 °F - 25.0 °F 35% 29.67 in 10.0 mi East 16.1 mph - N/A   Mostly Cloudy
12:53 PM 55.0 °F - 24.1 °F 30% 29.62 in 10.0 mi East 19.6 mph - N/A   Clear
1:53 PM 57.0 °F - 25.0 °F 29% 29.57 in 10.0 mi East 23.0 mph 28.8 mph N/A   Clear
2:53 PM 59.0 °F - 25.0 °F 27% 29.53 in 10.0 mi East 21.9 mph 27.6 mph N/A   Clear
3:53 PM 63.0 °F - 27.0 °F 26% 29.49 in 10.0 mi East 18.4 mph 24.2 mph N/A   Clear
4:53 PM 63.0 °F - 28.0 °F 27% 29.48 in 10.0 mi East 18.4 mph - N/A   Clear
5:53 PM 62.1 °F - 28.9 °F 29% 29.45 in 10.0 mi East 16.1 mph - N/A   Clear
6:53 PM 59.0 °F - 33.1 °F 38% 29.43 in 10.0 mi East 12.7 mph - N/A   Clear
7:53 PM 54.0 °F - 33.1 °F 45% 29.42 in 10.0 mi ENE 12.7 mph - N/A   Clear
8:53 PM 52.0 °F - 35.1 °F 53% 29.42 in 10.0 mi ENE 11.5 mph - N/A   Clear
9:53 PM 51.1 °F - 36.0 °F 56% 29.40 in 10.0 mi ENE 12.7 mph - N/A   Clear
10:53 PM 48.9 °F - 37.0 °F 64% 29.38 in 10.0 mi ENE 10.4 mph - N/A   Clear
11:53 PM 48.0 °F - 37.0 °F 66% 29.35 in 10.0 mi NE 11.5 mph - N/A   Clear